User: anonymous   Login
Location: Newark
(45.2500°N, 7.5833°E)
Time: 12:29:14
(UTC+00:00)
Language:

Oscar 19 - Orbit

View from above orbital plane
View from above orbital plane
View from above satellite
View from above satellite

Ground track
Ground track

The orbit data is extracted from the following two-line orbital elements,

1 20442U 90005G   20048.85305605 -.00000020 +00000-0 +91950-5 0  9994
2 20442 098.6786 355.7873 0012313 145.5506 214.6479 14.32944922571288
Epoch (UTC): 17 February 2020 20:28:24
Eccentricity: 0.0012313
inclination: 98.6786°
perigee height: 773 km
apogee height: 791 km
right ascension of ascending node: 355.7873°
argument of perigee: 145.5506°
revolutions per day: 14.32944922
mean anomaly at epoch: 214.6479°
orbit number at epoch: 57128

The dashed part of the orbit path shows where the satellite is in the earth's shadow,  

DLR